Flag for Colombia Weather past 2 weeks in San Juan de Pasto, Colombia

Now
54 °F

Passing clouds.


Feels Like: 50 °F
Forecast: 51 / 63 °F
Wind: 13 mph from South

Location: Latacunga Airport

Current Time: May 26, 2015 at 11:04:12 PM

Latest Report: May 26, 2015 at 10:00 PM


Visibility: N/A

Pressure: 30.45 "Hg

Humidity: 94%

Dew point: 52 °F

Location of San Juan de PastoLocation

Historic Weather in San Juan de Pasto — Graph

°F

San Juan de Pasto temperature yesterday

Maximum temperature yesterday: 63 °F (at 1:00 PM)
Minimum temperature yesterday: 48 °F (at 11:00 PM)
Average temperature yesterday: 54 °F

Past Weeks' High & Low Weather Summary

 TemperatureHumidityPressure
High70 °F (May 22, 3:00 PM)100% (May 12, 6:00 AM)30.54 "Hg (May 12, 6:00 AM)
Low45 °F (May 24, 4:00 AM)49% (May 22, 2:00 PM)30.33 "Hg (May 12, 4:00 PM)
Average56 °F83%30.45 "Hg
* Reported May 11 10:00 PM — May 26 10:00 PM, San Juan de Pasto, Weather by CustomWeather, © 2015

Note: Actual official high and low records may vary slightly from our data, if they occured in-between our weather recording intervals... More about our weather records

Advertising

San Juan de Pasto weather history for previous 24 hours

 ConditionsComfort  
Time TempWeatherWind HumidityBarometerVisibility
10:00 PM
Tue, May 26
54 °FPassing clouds.13 mph94%30.45 "HgN/A
9:00 PM54 °FPassing clouds.8 mph94%30.42 "HgN/A
8:00 PM55 °FPassing clouds.10 mph88%30.42 "HgN/A
7:00 PM55 °FPassing clouds.9 mph88%30.39 "HgN/A
6:00 PMN/ABroken clouds.15 mphN/AN/AN/A
5:00 PM61 °FBroken clouds.16 mph83%30.33 "HgN/A
4:00 PM63 °FPartly sunny.26 mph73%30.33 "HgN/A
3:00 PM68 °FPartly sunny.18 mph49%30.36 "HgN/A
1:00 PM64 °FPartly sunny.16 mph60%30.42 "HgN/A
12:00 PM64 °FPartly sunny.16 mph56%30.45 "HgN/A
11:00 AM63 °FScattered clouds.17 mph59%30.45 "HgN/A
10:00 AM57 °FPartly sunny.14 mph77%30.48 "HgN/A
9:00 AM54 °FPassing clouds.9 mph82%30.48 "HgN/A
8:00 AM50 °FBroken clouds.6 mph94%30.48 "HgN/A
7:00 AM48 °FBroken clouds.1 mph94%30.48 "HgN/A
6:00 AM46 °FPassing clouds.2 mph93%30.45 "HgN/A
5:00 AM46 °FPassing clouds.2 mph93%30.45 "HgN/A
4:00 AM48 °FPassing clouds.2 mph94%30.42 "HgN/A
3:00 AM48 °FPassing clouds.2 mph94%30.45 "HgN/A
2:00 AM48 °FPassing clouds.3 mph94%30.45 "HgN/A
1:00 AM48 °FPassing clouds.2 mph94%30.48 "HgN/A
12:00 AM48 °FPassing clouds.2 mph100%30.48 "HgN/A
11:00 PM
Mon, May 25
48 °FPassing clouds.2 mph94%30.51 "HgN/A
Weather by CustomWeather, © 2015

See weather overviewHow to use our weather pages